Total_Precipitation_Accumulation
1.64 1.51 1.54 1.59 1.56 1.42 1.44 1.36 1.44 1.79 1.76 1.61 1.35 1.12 0.97 0.95 1.02 0.96 0.97 1.13 1.63 2.31 2.58 2.72 2.97 3.32 3.70
2.04 1.91 1.81 1.67 1.49 1.26 1.19 1.28 1.33 1.87 2.09 2.09 1.87 1.46 1.38 1.37 1.25 1.18 1.22 1.20 1.27 1.41 1.91 2.25 2.34 2.27 2.36
1.47 1.26 1.33 1.53 1.73 1.74 1.58 1.49 1.43 1.95 2.05 2.26 2.22 2.00 1.64 1.51 1.57 1.71 1.79 1.72 1.66 1.72 1.63 1.94 2.29 2.31 2.61
1.43 1.29 1.21 1.25 1.35 1.40 1.39 1.26 1.08 1.02 1.35 1.95 2.10 1.87 1.86 1.56 1.41 1.43 1.68 1.95 2.26 2.20 2.01 2.16 2.19 2.34 2.48
1.53 1.25 1.14 1.10 1.11 1.15 1.28 1.34 1.39 1.33 1.17 1.38 1.13 1.08 1.21 1.40 1.30 1.38 1.51 1.80 1.90 1.96 2.19 2.88 3.03 3.15 2.88
1.10 1.08 1.06 1.11 1.19 1.37 1.51 1.65 1.63 1.28 1.28 1.46 1.26 1.12 0.90 0.85 1.18 1.37 1.92 1.79 1.62 1.66 1.83 2.16 2.33 2.39 2.56
0.97 0.84 0.81 0.85 1.09 1.29 1.34 1.42 1.37 1.17 1.51 1.86 1.64 1.40 1.16 1.11 1.17 1.27 1.55 1.45 1.28 1.26 1.29 1.37 1.55 1.62 1.52
0.80 0.83 0.87 0.93 1.07 1.35 1.32 1.43 1.41 1.25 1.11 1.33 1.18 1.21 1.17 1.12 1.28 1.20 1.25 0.91 0.80 0.85 0.86 0.90 0.92 0.91 1.04
1.19 1.29 1.35 1.33 1.21 1.18 1.23 1.34 1.28 0.84 0.70 0.76 0.89 1.12 1.26 1.01 0.81 1.07 1.12 0.85 0.79 0.85 0.71 0.62 0.69 0.77 0.73
0.69 0.73 0.78 0.86 1.00 0.84 0.85 1.29 1.22 1.30 0.78 1.17 0.92 0.91 1.37 0.97 0.76 0.78 0.68 0.69 0.58 0.60 0.79 0.83 0.72 0.70 0.66
0.54 0.55 0.57 0.67 0.73 0.75 0.79 1.20 1.63 1.29 0.60 1.65 1.66 1.03 1.33 0.76 0.56 0.64 0.52 0.47 0.43 0.46 0.54 0.68 0.89 0.90 0.85
0.34 0.33 0.42 0.54 0.62 0.71 0.89 1.11 1.25 1.34 0.87 1.28 2.16 1.15 1.52 1.25 0.72 0.63 0.65 0.49 0.39 0.38 0.41 0.62 0.77 0.90 1.14
0.30 0.30 0.31 0.39 0.56 0.75 0.91 1.08 1.21 1.21 1.27 1.36 1.56 1.40 1.76 1.67 0.96 0.61 0.72 0.73 0.47 0.35 0.41 0.53 0.64 0.72 0.87
0.40 0.34 0.40 0.52 0.66 0.73 0.90 0.91 1.14 1.02 1.10 1.34 1.41 1.66 1.92 1.27 1.22 1.00 0.58 0.77 0.63 0.49 0.51 0.47 0.53 0.70 0.84
0.66 0.68 0.63 0.62 0.59 0.60 0.85 1.06 1.24 0.91 0.83 0.96 1.25 1.33 1.32 1.29 1.47 0.89 0.65 0.55 0.50 0.61 0.64 0.57 0.45 0.66 0.77
0.83 0.82 0.92 0.89 0.82 0.84 0.88 0.99 0.96 0.71 0.79 0.95 1.06 1.33 1.21 1.05 0.98 0.93 0.89 0.63 0.52 0.46 0.50 0.89 0.49 0.33 0.39
1.10 1.11 1.18 1.18 1.16 1.01 0.76 0.83 0.81 0.68 0.74 0.92 1.25 1.70 1.84 0.92 0.62 0.68 1.03 0.89 0.64 0.61 0.54 0.59 0.62 0.35 0.33